This is the latest recevied weather packets stored in our database for station/object K0WOI. If no packets are shown the sender has not sent any weather packets the latest 10 day(s).
| Time | Temp. | Humidity | Pressure | Rain* | Wind** | Luminosity | Snow |
|---|---|---|---|---|---|---|---|
| 1777839005 | 23.89° C | 29% | 1008 hPa | 0 mm | - | 650 W/m² | - |
| 1777838701 | 24.44° C | 30% | 1007.9 hPa | 0 mm | - | 678 W/m² | - |
| 1777838397 | 24.44° C | 27% | 1008.1 hPa | 0 mm | - | 714 W/m² | - |
| 1777838095 | 23.89° C | 25% | 1008 hPa | 0 mm | - | 732 W/m² | - |
| 1777837791 | 24.44° C | 25% | 1007.9 hPa | 0 mm | - | 615 W/m² | - |
| 1777837489 | 23.33° C | 26% | 1008.1 hPa | 0 mm | - | 654 W/m² | - |
| 1777837184 | 23.89° C | 26% | 1008.2 hPa | 0 mm | - | 656 W/m² | - |
| 1777836879 | 23.89° C | 25% | 1008.1 hPa | 0 mm | - | 677 W/m² | - |
| 1777836575 | 23.89° C | 32% | 1008 hPa | 0 mm | - | 735 W/m² | - |
| 1777836272 | 23.89° C | 28% | 1008.1 hPa | 0 mm | - | 721 W/m² | - |
| 1777835967 | 23.89° C | 29% | 1008 hPa | 0 mm | - | 719 W/m² | - |
| 1777835666 | 23.89° C | 26% | 1008 hPa | 0 mm | - | 706 W/m² | - |
| 1777835361 | 23.89° C | 33% | 1008.4 hPa | 0 mm | - | 737 W/m² | - |
| 1777835059 | 23.89° C | 30% | 1008.2 hPa | 0 mm | - | 726 W/m² | - |
| 1777834755 | 23.89° C | 28% | 1008 hPa | 0 mm | - | 721 W/m² | - |
| 1777834453 | 23.89° C | 29% | 1008.2 hPa | 0 mm | - | 737 W/m² | - |
| 1777834151 | 23.33° C | 31% | 1008.4 hPa | 0 mm | - | 748 W/m² | - |
| 1777833848 | 23.33° C | 32% | 1008.2 hPa | 0 mm | - | 819 W/m² | - |
| 1777833544 | 23.33° C | 29% | 1008.2 hPa | 0 mm | - | 665 W/m² | - |
| 1777833241 | 22.78° C | 32% | 1008.2 hPa | 0 mm | - | 644 W/m² | - |
| 1777832938 | 23.33° C | 29% | 1008.1 hPa | 0 mm | - | 269 W/m² | - |
| 1777832637 | 23.33° C | 33% | 1008.4 hPa | 0 mm | - | 705 W/m² | - |
| 1777832334 | 22.78° C | 29% | 1008.2 hPa | 0 mm | - | 501 W/m² | - |
| 1777832031 | 22.78° C | 31% | 1008.2 hPa | 0 mm | - | 484 W/m² | - |
| 1777831727 | 23.33° C | 30% | 1008.5 hPa | 0 mm | - | 502 W/m² | - |
* Rain latest hour (hover to see other rain measurements)
** Current wind speed in m/s (hover to see current wind gust speed)